QPF
0.01 0.01 0.01 0.02 0.01 0.01 0.01 0.01 0.01 0.01 0.01 0.01 0.02 0.03 0.03 0.05 0.09 0.08 0.06 0.05 0.07 0.08 0.08 0.07 0.07 0.06 0.05 0.05 0.05 0.04 0.05 0.05 0.06 0.05 0.06 0.10 0.10 0.10 0.08 0.07 0.09 0.08 0.06
0.01 0.01 0.01 0.01 0.01 0.01 0.02 0.02 0.01 0.01 0.02 0.02 0.02 0.02 0.02 0.04 0.05 0.06 0.06 0.05 0.06 0.07 0.08 0.07 0.07 0.07 0.08 0.07 0.05 0.04 0.04 0.04 0.04 0.06 0.05 0.05 0.04 0.02 0.03 0.02 0.03 0.04 0.05
0.00 0.01 0.01 0.01 0.01 0.01 0.01 0.02 0.01 0.01 0.01 0.02 0.03 0.03 0.03 0.03 0.04 0.04 0.04 0.05 0.05 0.06 0.08 0.08 0.07 0.06 0.06 0.06 0.05 0.04 0.03 0.03 0.02 0.04 0.05 0.05 0.04 0.02 0.02 0.02 0.02 0.03 0.04
0.00 0.00 0.00 0.00 0.01 0.01 0.01 0.01 0.02 0.02 0.02 0.02 0.03 0.03 0.04 0.03 0.03 0.03 0.04 0.04 0.04 0.06 0.07 0.07 0.06 0.06 0.06 0.06 0.06 0.04 0.02 0.02 0.02 0.02 0.03 0.05 0.05 0.04 0.03 0.03 0.03 0.04 0.05
0.00 0.00 0.01 0.01 0.01 0.01 0.01 0.01 0.02 0.03 0.03 0.03 0.04 0.04 0.03 0.03 0.03 0.03 0.03 0.04 0.05 0.06 0.07 0.07 0.07 0.07 0.06 0.05 0.04 0.04 0.04 0.03 0.02 0.02 0.02 0.03 0.04 0.04 0.05 0.06 0.04 0.04 0.06
0.00 0.00 0.00 0.01 0.01 0.01 0.02 0.02 0.03 0.03 0.02 0.03 0.03 0.03 0.03 0.03 0.02 0.02 0.03 0.03 0.05 0.05 0.05 0.05 0.07 0.07 0.05 0.04 0.03 0.03 0.03 0.03 0.02 0.02 0.02 0.02 0.03 0.05 0.08 0.08 0.07 0.07 0.07
0.00 0.00 0.00 0.00 0.01 0.01 0.01 0.02 0.03 0.03 0.03 0.03 0.03 0.03 0.03 0.03 0.03 0.02 0.02 0.02 0.01 0.02 0.02 0.02 0.04 0.05 0.05 0.05 0.04 0.02 0.03 0.02 0.02 0.02 0.02 0.02 0.03 0.04 0.06 0.07 0.07 0.06 0.05
0.01 0.00 0.00 0.00 0.00 0.01 0.01 0.01 0.02 0.03 0.03 0.02 0.03 0.03 0.03 0.03 0.03 0.03 0.02 0.02 0.01 0.01 0.01 0.02 0.02 0.02 0.03 0.03 0.03 0.02 0.02 0.02 0.03 0.02 0.02 0.03 0.03 0.03 0.03 0.03 0.05 0.04 0.03
0.01 0.00 0.00 0.00 0.00 0.01 0.02 0.02 0.02 0.02 0.03 0.02 0.02 0.03 0.03 0.03 0.02 0.02 0.03 0.03 0.02 0.01 0.01 0.01 0.01 0.01 0.01 0.01 0.01 0.01 0.01 0.01 0.02 0.03 0.03 0.04 0.04 0.04 0.04 0.03 0.03 0.04 0.03
0.01 0.01 0.01 0.01 0.01 0.01 0.01 0.02 0.02 0.02 0.02 0.02 0.02 0.02 0.02 0.03 0.03 0.03 0.03 0.02 0.02 0.02 0.01 0.01 0.01 0.01 0.01 0.01 0.01 0.01 0.01 0.01 0.01 0.01 0.02 0.04 0.05 0.05 0.05 0.04 0.04 0.03 0.03
0.02 0.02 0.02 0.02 0.01 0.01 0.01 0.01 0.02 0.02 0.02 0.02 0.02 0.02 0.02 0.02 0.02 0.03 0.03 0.02 0.02 0.02 0.01 0.01 0.01 0.02 0.02 0.01 0.01 0.02 0.01 0.01 0.01 0.01 0.01 0.02 0.03 0.04 0.05 0.04 0.03 0.03 0.03
0.02 0.02 0.01 0.01 0.02 0.02 0.02 0.01 0.02 0.02 0.03 0.03 0.02 0.02 0.02 0.02 0.02 0.02 0.02 0.02 0.02 0.01 0.01 0.01 0.00 0.01 0.01 0.02 0.02 0.01 0.01 0.01 0.00 0.00 0.01 0.01 0.03 0.03 0.04 0.05 0.04 0.03 0.03
0.02 0.02 0.02 0.02 0.02 0.02 0.02 0.02 0.02 0.02 0.02 0.03 0.03 0.02 0.02 0.02 0.02 0.03 0.03 0.03 0.02 0.02 0.01 0.01 0.01 0.01 0.01 0.01 0.02 0.01 0.01 0.01 0.01 0.01 0.01 0.01 0.02 0.04 0.05 0.04 0.04 0.04 0.03
0.02 0.02 0.02 0.02 0.02 0.02 0.02 0.02 0.02 0.02 0.02 0.02 0.02 0.03 0.02 0.02 0.02 0.03 0.03 0.03 0.02 0.02 0.01 0.01 0.01 0.01 0.02 0.03 0.03 0.02 0.01 0.01 0.01 0.01 0.01 0.01 0.01 0.03 0.05 0.06 0.04 0.03 0.03
0.02 0.01 0.01 0.01 0.01 0.01 0.01 0.01 0.01 0.01 0.01 0.01 0.02 0.02 0.02 0.02 0.02 0.03 0.03 0.03 0.03 0.03 0.02 0.02 0.01 0.01 0.03 0.04 0.03 0.01 0.01 0.01 0.01 0.02 0.02 0.03 0.03 0.02 0.02 0.04 0.03 0.02 0.03
0.02 0.01 0.01 0.01 0.01 0.01 0.01 0.01 0.00 0.00 0.00 0.01 0.01 0.01 0.02 0.02 0.02 0.02 0.03 0.03 0.03 0.03 0.03 0.02 0.01 0.01 0.02 0.04 0.02 0.01 0.01 0.01 0.01 0.01 0.02 0.02 0.02 0.02 0.02 0.02 0.02 0.01 0.01
0.03 0.02 0.02 0.01 0.00 0.00 0.00 0.00 0.00 0.00 0.01 0.01 0.01 0.01 0.01 0.01 0.01 0.01 0.02 0.03 0.03 0.02 0.02 0.01 0.01 0.01 0.01 0.02 0.02 0.01 0.01 0.01 0.00 0.01 0.01 0.01 0.02 0.02 0.02 0.01 0.01 0.01 0.02
0.03 0.03 0.02 0.01 0.00 0.00 0.00 0.00 0.00 0.01 0.01 0.01 0.01 0.01 0.01 0.01 0.01 0.01 0.01 0.02 0.02 0.02 0.03 0.02 0.01 0.01 0.00 0.01 0.02 0.01 0.01 0.01 0.01 0.01 0.01 0.02 0.02 0.03 0.02 0.01 0.01 0.01 0.01
0.03 0.03 0.02 0.01 0.01 0.01 0.01 0.01 0.01 0.01 0.01 0.01 0.01 0.01 0.01 0.01 0.01 0.01 0.01 0.02 0.02 0.02 0.02 0.02 0.01 0.01 0.00 0.00 0.01 0.01 0.01 0.01 0.01 0.02 0.02 0.03 0.03 0.03 0.03 0.02 0.02 0.01 0.01
0.02 0.02 0.01 0.01 0.01 0.01 0.01 0.01 0.01 0.01 0.01 0.02 0.02 0.02 0.01 0.01 0.01 0.01 0.02 0.03 0.04 0.03 0.03 0.03 0.02 0.01 0.01 0.00 0.00 0.01 0.01 0.02 0.01 0.02 0.02 0.03 0.05 0.05 0.04 0.02 0.03 0.02 0.02
0.01 0.01 0.01 0.01 0.01 0.01 0.01 0.02 0.02 0.02 0.02 0.02 0.02 0.01 0.02 0.01 0.01 0.02 0.02 0.02 0.03 0.05 0.05 0.05 0.04 0.03 0.02 0.02 0.01 0.01 0.02 0.02 0.02 0.03 0.03 0.03 0.03 0.04 0.04 0.03 0.02 0.02 0.02
0.02 0.01 0.01 0.01 0.01 0.01 0.01 0.02 0.02 0.02 0.02 0.02 0.02 0.02 0.01 0.02 0.02 0.02 0.02 0.02 0.03 0.04 0.05 0.05 0.05 0.05 0.04 0.04 0.03 0.02 0.02 0.03 0.03 0.04 0.04 0.04 0.03 0.03 0.04 0.04 0.03 0.02 0.02
0.02 0.02 0.01 0.01 0.01 0.01 0.02 0.02 0.02 0.02 0.02 0.02 0.02 0.02 0.02 0.02 0.03 0.03 0.03 0.02 0.02 0.02 0.02 0.03 0.03 0.03 0.04 0.04 0.03 0.02 0.02 0.01 0.02 0.03 0.04 0.05 0.05 0.04 0.03 0.03 0.03 0.02 0.02
0.02 0.02 0.01 0.01 0.01 0.01 0.02 0.02 0.03 0.03 0.02 0.02 0.02 0.03 0.02 0.02 0.02 0.02 0.03 0.03 0.02 0.01 0.01 0.01 0.02 0.02 0.02 0.02 0.01 0.01 0.00 0.01 0.01 0.02 0.03 0.04 0.04 0.03 0.03 0.03 0.02 0.02 0.01
0.03 0.03 0.02 0.01 0.01 0.01 0.02 0.02 0.02 0.02 0.02 0.03 0.02 0.03 0.03 0.03 0.02 0.03 0.03 0.03 0.02 0.02 0.01 0.01 0.01 0.01 0.01 0.01 0.01 0.02 0.01 0.01 0.01 0.01 0.02 0.02 0.03 0.03 0.02 0.02 0.02 0.01 0.01
0.04 0.02 0.02 0.02 0.01 0.01 0.02 0.02 0.02 0.01 0.02 0.02 0.02 0.02 0.03 0.03 0.02 0.02 0.02 0.03 0.02 0.02 0.02 0.02 0.02 0.01 0.01 0.01 0.01 0.02 0.02 0.01 0.01 0.01 0.01 0.01 0.01 0.02 0.02 0.02 0.02 0.02 0.01
MSLP
1014.06 1013.69 1013.31 1012.98 1012.71 1012.54 1012.48 1012.52 1012.62 1012.75 1012.88 1012.98 1013.05 1013.09 1013.15 1013.24 1013.40 1013.64 1013.95 1014.32 1014.70 1015.07 1015.40 1015.68 1015.88 1016.04 1016.15 1016.25 1016.34 1016.43 1016.53 1016.62 1016.71 1016.79 1016.86 1016.93 1017.00 1017.09 1017.19 1017.30 1017.40 1017.47 1017.50
1014.71 1014.24 1013.76 1013.33 1012.99 1012.76 1012.67 1012.70 1012.83 1012.99 1013.17 1013.32 1013.42 1013.50 1013.57 1013.65 1013.79 1013.98 1014.25 1014.57 1014.91 1015.26 1015.59 1015.87 1016.10 1016.29 1016.44 1016.58 1016.70 1016.82 1016.94 1017.05 1017.15 1017.24 1017.32 1017.39 1017.47 1017.56 1017.66 1017.75 1017.82 1017.86 1017.86
1015.37 1014.82 1014.26 1013.76 1013.35 1013.08 1012.97 1012.99 1013.13 1013.33 1013.54 1013.73 1013.87 1013.97 1014.05 1014.12 1014.23 1014.38 1014.58 1014.84 1015.13 1015.44 1015.74 1016.01 1016.25 1016.47 1016.66 1016.84 1017.01 1017.17 1017.33 1017.46 1017.58 1017.68 1017.77 1017.85 1017.92 1018.00 1018.08 1018.14 1018.18 1018.19 1018.15
1016.00 1015.40 1014.79 1014.24 1013.79 1013.49 1013.35 1013.37 1013.50 1013.71 1013.94 1014.16 1014.32 1014.44 1014.53 1014.60 1014.67 1014.78 1014.94 1015.13 1015.37 1015.62 1015.88 1016.13 1016.37 1016.60 1016.83 1017.05 1017.26 1017.47 1017.66 1017.83 1017.98 1018.10 1018.19 1018.26 1018.33 1018.39 1018.43 1018.47 1018.48 1018.46 1018.40
1016.55 1015.94 1015.32 1014.75 1014.28 1013.95 1013.79 1013.78 1013.89 1014.09 1014.31 1014.53 1014.70 1014.84 1014.93 1015.00 1015.07 1015.16 1015.28 1015.43 1015.60 1015.80 1016.02 1016.24 1016.47 1016.70 1016.95 1017.20 1017.46 1017.70 1017.94 1018.15 1018.31 1018.45 1018.55 1018.62 1018.67 1018.70 1018.73 1018.74 1018.73 1018.70 1018.63
1017.01 1016.42 1015.81 1015.24 1014.77 1014.43 1014.24 1014.19 1014.25 1014.40 1014.59 1014.78 1014.95 1015.08 1015.19 1015.28 1015.36 1015.45 1015.56 1015.69 1015.84 1016.00 1016.17 1016.37 1016.57 1016.80 1017.05 1017.32 1017.61 1017.89 1018.15 1018.39 1018.58 1018.73 1018.83 1018.89 1018.93 1018.95 1018.96 1018.96 1018.94 1018.91 1018.84
1017.35 1016.80 1016.22 1015.69 1015.23 1014.88 1014.65 1014.54 1014.54 1014.61 1014.73 1014.87 1015.01 1015.14 1015.26 1015.38 1015.50 1015.63 1015.76 1015.90 1016.04 1016.19 1016.35 1016.51 1016.70 1016.91 1017.16 1017.43 1017.72 1018.02 1018.30 1018.56 1018.76 1018.92 1019.02 1019.09 1019.12 1019.13 1019.13 1019.13 1019.12 1019.10 1019.06
1017.55 1017.05 1016.54 1016.05 1015.61 1015.25 1014.99 1014.82 1014.72 1014.70 1014.72 1014.79 1014.88 1014.99 1015.13 1015.29 1015.46 1015.65 1015.84 1016.02 1016.20 1016.36 1016.52 1016.67 1016.85 1017.04 1017.27 1017.54 1017.82 1018.12 1018.40 1018.66 1018.87 1019.03 1019.14 1019.20 1019.23 1019.25 1019.26 1019.27 1019.27 1019.28 1019.27
1017.60 1017.16 1016.72 1016.28 1015.88 1015.53 1015.23 1014.99 1014.80 1014.66 1014.58 1014.55 1014.58 1014.66 1014.80 1015.00 1015.24 1015.50 1015.77 1016.03 1016.26 1016.47 1016.65 1016.82 1016.99 1017.18 1017.39 1017.64 1017.90 1018.18 1018.46 1018.70 1018.91 1019.07 1019.17 1019.24 1019.29 1019.32 1019.34 1019.37 1019.41 1019.44 1019.46
1017.50 1017.13 1016.75 1016.39 1016.03 1015.69 1015.36 1015.06 1014.78 1014.53 1014.33 1014.19 1014.14 1014.18 1014.31 1014.54 1014.83 1015.17 1015.53 1015.87 1016.19 1016.47 1016.70 1016.91 1017.09 1017.28 1017.49 1017.71 1017.96 1018.22 1018.47 1018.70 1018.89 1019.05 1019.16 1019.24 1019.30 1019.35 1019.40 1019.46 1019.52 1019.57 1019.62
1017.25 1016.95 1016.65 1016.35 1016.04 1015.73 1015.39 1015.03 1014.67 1014.32 1014.00 1013.76 1013.62 1013.60 1013.70 1013.93 1014.26 1014.66 1015.10 1015.54 1015.95 1016.31 1016.62 1016.88 1017.11 1017.32 1017.53 1017.75 1017.98 1018.21 1018.44 1018.65 1018.84 1018.99 1019.12 1019.22 1019.30 1019.38 1019.46 1019.54 1019.62 1019.69 1019.74
1016.87 1016.62 1016.39 1016.16 1015.92 1015.64 1015.30 1014.92 1014.49 1014.05 1013.64 1013.29 1013.05 1012.95 1013.00 1013.21 1013.55 1013.99 1014.49 1015.01 1015.51 1015.96 1016.36 1016.70 1016.99 1017.25 1017.48 1017.71 1017.94 1018.16 1018.37 1018.58 1018.76 1018.93 1019.07 1019.20 1019.31 1019.42 1019.53 1019.63 1019.72 1019.80 1019.84
1016.36 1016.16 1016.00 1015.84 1015.65 1015.42 1015.10 1014.71 1014.25 1013.74 1013.25 1012.81 1012.47 1012.28 1012.26 1012.42 1012.73 1013.18 1013.71 1014.29 1014.87 1015.41 1015.91 1016.34 1016.71 1017.04 1017.32 1017.58 1017.82 1018.05 1018.27 1018.48 1018.67 1018.85 1019.03 1019.19 1019.35 1019.49 1019.63 1019.75 1019.85 1019.91 1019.94
1015.73 1015.57 1015.47 1015.37 1015.24 1015.06 1014.78 1014.40 1013.92 1013.38 1012.83 1012.31 1011.89 1011.61 1011.51 1011.59 1011.85 1012.27 1012.81 1013.42 1014.06 1014.69 1015.28 1015.81 1016.28 1016.69 1017.04 1017.35 1017.63 1017.89 1018.12 1018.35 1018.57 1018.79 1019.00 1019.21 1019.41 1019.59 1019.76 1019.90 1019.99 1020.05 1020.05
1014.99 1014.87 1014.80 1014.76 1014.68 1014.55 1014.31 1013.96 1013.50 1012.96 1012.38 1011.82 1011.33 1010.97 1010.78 1010.77 1010.96 1011.33 1011.85 1012.47 1013.14 1013.83 1014.51 1015.14 1015.71 1016.21 1016.65 1017.03 1017.36 1017.66 1017.94 1018.20 1018.45 1018.71 1018.97 1019.23 1019.47 1019.70 1019.90 1020.05 1020.15 1020.19 1020.17
1014.15 1014.05 1014.01 1014.00 1013.97 1013.88 1013.69 1013.39 1012.97 1012.46 1011.88 1011.30 1010.78 1010.36 1010.09 1010.01 1010.12 1010.42 1010.89 1011.50 1012.19 1012.93 1013.67 1014.39 1015.06 1015.66 1016.18 1016.64 1017.04 1017.39 1017.70 1018.01 1018.30 1018.61 1018.91 1019.22 1019.52 1019.78 1020.01 1020.18 1020.29 1020.32 1020.29
1013.21 1013.11 1013.08 1013.09 1013.09 1013.04 1012.90 1012.66 1012.31 1011.85 1011.32 1010.76 1010.23 1009.79 1009.47 1009.32 1009.36 1009.60 1010.02 1010.59 1011.28 1012.05 1012.85 1013.64 1014.39 1015.07 1015.68 1016.20 1016.66 1017.06 1017.42 1017.76 1018.10 1018.45 1018.79 1019.14 1019.48 1019.79 1020.05 1020.24 1020.36 1020.40 1020.37
1012.17 1012.07 1012.03 1012.04 1012.05 1012.04 1011.95 1011.78 1011.50 1011.13 1010.67 1010.18 1009.69 1009.25 1008.92 1008.73 1008.72 1008.90 1009.27 1009.80 1010.48 1011.25 1012.08 1012.92 1013.73 1014.48 1015.15 1015.74 1016.25 1016.69 1017.08 1017.46 1017.82 1018.20 1018.58 1018.96 1019.33 1019.67 1019.96 1020.18 1020.32 1020.38 1020.36
1011.06 1010.93 1010.87 1010.86 1010.88 1010.88 1010.85 1010.75 1010.56 1010.28 1009.93 1009.53 1009.11 1008.72 1008.40 1008.21 1008.16 1008.31 1008.63 1009.13 1009.79 1010.56 1011.41 1012.28 1013.13 1013.92 1014.64 1015.27 1015.80 1016.27 1016.69 1017.07 1017.45 1017.84 1018.24 1018.64 1019.03 1019.39 1019.71 1019.95 1020.12 1020.21 1020.23
1009.87 1009.71 1009.62 1009.58 1009.59 1009.61 1009.61 1009.58 1009.48 1009.32 1009.08 1008.78 1008.46 1008.14 1007.87 1007.70 1007.66 1007.78 1008.08 1008.56 1009.19 1009.95 1010.80 1011.69 1012.56 1013.38 1014.13 1014.78 1015.33 1015.81 1016.23 1016.62 1016.99 1017.38 1017.77 1018.18 1018.58 1018.95 1019.29 1019.56 1019.77 1019.90 1019.96
1008.62 1008.42 1008.29 1008.22 1008.21 1008.23 1008.27 1008.30 1008.29 1008.23 1008.10 1007.92 1007.70 1007.48 1007.28 1007.14 1007.12 1007.25 1007.54 1008.01 1008.63 1009.39 1010.24 1011.13 1012.01 1012.85 1013.61 1014.27 1014.83 1015.31 1015.72 1016.10 1016.46 1016.83 1017.21 1017.60 1018.00 1018.38 1018.73 1019.03 1019.28 1019.46 1019.57
1007.32 1007.07 1006.90 1006.80 1006.77 1006.79 1006.85 1006.93 1006.99 1007.02 1007.00 1006.93 1006.81 1006.68 1006.55 1006.48 1006.50 1006.65 1006.96 1007.43 1008.05 1008.81 1009.66 1010.56 1011.46 1012.30 1013.07 1013.74 1014.30 1014.78 1015.18 1015.54 1015.88 1016.23 1016.59 1016.97 1017.35 1017.73 1018.09 1018.41 1018.69 1018.92 1019.08
1005.95 1005.67 1005.46 1005.33 1005.28 1005.30 1005.39 1005.50 1005.62 1005.72 1005.78 1005.80 1005.77 1005.72 1005.67 1005.66 1005.73 1005.93 1006.27 1006.76 1007.41 1008.18 1009.05 1009.97 1010.88 1011.74 1012.51 1013.19 1013.76 1014.23 1014.63 1014.98 1015.31 1015.63 1015.97 1016.33 1016.70 1017.07 1017.43 1017.77 1018.08 1018.34 1018.55
1004.51 1004.20 1003.97 1003.82 1003.76 1003.79 1003.89 1004.03 1004.19 1004.34 1004.47 1004.55 1004.59 1004.61 1004.63 1004.69 1004.82 1005.07 1005.46 1006.01 1006.69 1007.50 1008.40 1009.35 1010.28 1011.16 1011.96 1012.65 1013.23 1013.72 1014.12 1014.47 1014.79 1015.10 1015.42 1015.76 1016.12 1016.48 1016.83 1017.17 1017.49 1017.77 1018.02
1002.98 1002.65 1002.41 1002.26 1002.21 1002.25 1002.37 1002.54 1002.73 1002.93 1003.09 1003.22 1003.32 1003.40 1003.48 1003.61 1003.81 1004.13 1004.59 1005.20 1005.95 1006.81 1007.76 1008.74 1009.71 1010.62 1011.44 1012.15 1012.76 1013.26 1013.68 1014.04 1014.36 1014.68 1014.99 1015.32 1015.66 1016.00 1016.34 1016.67 1016.98 1017.26 1017.52
1001.34 1001.00 1000.77 1000.64 1000.63 1000.70 1000.86 1001.07 1001.29 1001.52 1001.72 1001.89 1002.03 1002.16 1002.31 1002.50 1002.79 1003.19 1003.73 1004.42 1005.24 1006.17 1007.17 1008.19 1009.20 1010.14 1010.99 1011.74 1012.37 1012.89 1013.34 1013.72 1014.06 1014.39 1014.71 1015.03 1015.35 1015.67 1015.98 1016.28 1016.56 1016.82 1017.06
Thickness
5723 5722 5722 5720 5721 5720 5720 5720 5721 5721 5721 5722 5722 5722 5722 5722 5722 5720 5718 5716 5716 5717 5717 5717 5717 5717 5717 5717 5717 5717 5717 5717 5717 5717 5717 5717 5717 5717 5718 5718 5718 5718 5719
5719 5718 5718 5716 5716 5715 5715 5716 5716 5715 5716 5715 5716 5716 5716 5716 5716 5715 5713 5712 5711 5711 5712 5712 5712 5712 5712 5712 5712 5711 5711 5712 5712 5712 5712 5712 5712 5713 5713 5713 5714 5714 5714
5715 5714 5714 5713 5712 5711 5711 5711 5712 5711 5711 5710 5711 5710 5710 5710 5710 5710 5709 5708 5707 5706 5706 5706 5706 5706 5706 5706 5706 5706 5706 5706 5707 5707 5707 5707 5707 5708 5708 5708 5709 5709 5710
5710 5710 5709 5708 5707 5707 5707 5706 5707 5706 5706 5706 5705 5705 5704 5703 5704 5704 5704 5703 5703 5702 5700 5699 5700 5700 5700 5701 5701 5701 5701 5701 5701 5701 5702 5702 5702 5703 5703 5703 5704 5704 5705
5705 5705 5704 5703 5703 5703 5702 5702 5702 5702 5700 5699 5699 5698 5699 5698 5698 5698 5699 5698 5697 5697 5696 5694 5694 5694 5694 5695 5695 5696 5696 5696 5696 5696 5697 5697 5698 5698 5698 5699 5699 5700 5700
5701 5700 5699 5700 5699 5699 5697 5697 5696 5696 5695 5695 5695 5694 5693 5693 5693 5692 5692 5692 5692 5692 5692 5691 5690 5689 5688 5689 5689 5690 5690 5691 5691 5691 5692 5693 5693 5693 5693 5694 5694 5695 5695
5696 5695 5696 5695 5695 5694 5693 5693 5692 5691 5691 5692 5691 5689 5689 5689 5689 5687 5687 5686 5686 5686 5686 5686 5685 5685 5685 5683 5683 5683 5684 5685 5686 5686 5687 5688 5688 5688 5688 5689 5689 5689 5689
5691 5691 5691 5691 5690 5689 5689 5688 5687 5687 5687 5687 5687 5686 5684 5682 5682 5683 5682 5681 5681 5681 5681 5681 5681 5680 5680 5680 5677 5677 5678 5679 5680 5680 5681 5682 5683 5683 5684 5684 5684 5684 5684
5687 5686 5687 5687 5686 5686 5685 5684 5683 5682 5682 5683 5684 5683 5680 5678 5678 5678 5677 5677 5676 5676 5676 5676 5676 5676 5675 5674 5674 5672 5672 5673 5674 5675 5676 5677 5678 5678 5679 5679 5679 5678 5678
5682 5682 5682 5682 5681 5681 5680 5680 5680 5679 5678 5678 5678 5677 5679 5678 5675 5672 5672 5672 5672 5671 5672 5671 5671 5670 5670 5669 5667 5666 5666 5667 5668 5669 5670 5671 5672 5672 5673 5673 5673 5673 5673
5678 5677 5676 5676 5677 5676 5676 5676 5675 5675 5675 5674 5674 5673 5672 5671 5673 5670 5667 5667 5667 5668 5667 5666 5666 5665 5664 5664 5663 5661 5661 5662 5662 5663 5665 5665 5666 5667 5667 5667 5667 5667 5667
5673 5672 5672 5672 5672 5671 5671 5670 5670 5670 5670 5669 5670 5669 5669 5668 5667 5667 5665 5664 5663 5663 5662 5661 5661 5660 5659 5658 5657 5656 5656 5656 5657 5658 5659 5659 5660 5661 5661 5661 5662 5661 5661
5669 5669 5668 5668 5667 5667 5666 5665 5665 5665 5665 5664 5665 5665 5665 5665 5664 5663 5662 5661 5659 5660 5658 5658 5657 5655 5655 5654 5653 5651 5651 5651 5652 5652 5653 5653 5654 5654 5655 5655 5655 5655 5655
5666 5665 5664 5663 5662 5661 5661 5660 5660 5660 5661 5660 5660 5660 5659 5660 5659 5659 5658 5656 5655 5656 5655 5654 5653 5652 5651 5650 5648 5647 5648 5647 5647 5647 5648 5648 5648 5648 5648 5648 5648 5649 5649
5662 5661 5660 5659 5658 5656 5656 5655 5655 5655 5655 5655 5655 5655 5655 5655 5654 5654 5654 5654 5652 5651 5651 5650 5649 5648 5646 5645 5643 5644 5644 5642 5642 5642 5642 5642 5642 5642 5642 5642 5642 5642 5642
5657 5656 5656 5655 5654 5652 5651 5650 5650 5650 5650 5650 5649 5649 5649 5651 5650 5649 5649 5649 5649 5648 5647 5647 5645 5644 5642 5641 5639 5640 5639 5637 5636 5636 5636 5636 5636 5636 5636 5636 5636 5635 5635
5652 5651 5651 5650 5649 5648 5647 5646 5645 5645 5645 5646 5645 5645 5645 5645 5645 5644 5644 5644 5643 5643 5642 5641 5640 5640 5638 5637 5636 5635 5635 5634 5633 5631 5631 5631 5630 5630 5630 5629 5629 5629 5629
5647 5647 5646 5645 5644 5643 5642 5641 5640 5640 5640 5640 5641 5640 5640 5640 5639 5639 5639 5639 5639 5638 5637 5635 5635 5634 5633 5633 5632 5630 5630 5629 5628 5626 5625 5625 5625 5625 5624 5623 5623 5623 5622
5642 5641 5640 5640 5639 5638 5637 5637 5636 5635 5635 5636 5636 5636 5636 5636 5635 5634 5633 5634 5633 5633 5631 5629 5629 5627 5627 5626 5625 5624 5624 5624 5623 5622 5620 5620 5619 5619 5618 5618 5617 5617 5616
5636 5636 5635 5634 5634 5633 5632 5631 5631 5630 5630 5630 5630 5630 5631 5631 5630 5630 5628 5628 5628 5626 5625 5624 5623 5622 5620 5620 5620 5619 5619 5619 5618 5617 5616 5615 5614 5614 5613 5613 5612 5611 5610
5631 5630 5630 5629 5628 5627 5627 5626 5625 5624 5624 5624 5624 5624 5624 5624 5623 5623 5623 5623 5621 5620 5619 5618 5617 5616 5615 5613 5614 5614 5613 5613 5613 5612 5612 5612 5611 5611 5609 5608 5606 5605 5604
5624 5623 5623 5623 5621 5621 5619 5617 5617 5618 5618 5618 5618 5618 5618 5616 5615 5614 5614 5613 5613 5614 5614 5613 5613 5612 5611 5610 5608 5607 5607 5607 5607 5607 5606 5606 5606 5606 5605 5604 5602 5600 5598
5616 5616 5616 5616 5615 5614 5612 5610 5609 5611 5611 5612 5612 5611 5611 5611 5610 5611 5608 5606 5605 5605 5605 5608 5607 5607 5606 5605 5603 5602 5601 5600 5600 5600 5597 5599 5600 5600 5599 5597 5595 5593 5592
5609 5609 5609 5609 5608 5607 5605 5604 5602 5603 5605 5605 5605 5605 5605 5604 5604 5604 5604 5603 5602 5601 5599 5599 5601 5601 5599 5598 5596 5596 5595 5593 5593 5592 5590 5592 5593 5593 5592 5591 5588 5587 5585
5602 5602 5602 5602 5602 5601 5598 5597 5595 5597 5598 5599 5599 5599 5598 5598 5596 5595 5596 5596 5596 5594 5591 5590 5589 5590 5588 5587 5586 5586 5586 5585 5586 5586 5584 5584 5586 5586 5586 5585 5583 5581 5579
5594 5595 5595 5595 5595 5595 5593 5590 5588 5591 5592 5593 5593 5592 5590 5589 5588 5587 5589 5590 5589 5589 5587 5585 5583 5581 5581 5580 5578 5579 5579 5579 5580 5580 5578 5577 5579 5578 5579 5580 5578 5576 5574